Miscellaneous Local Product
Issued by NWS North Platte, NE

Home | Current Version | Previous Version | Text Only | Print | Product List | Glossary On
Versions: 1 2 3 4 5 6 7 8 9 10 11 12 13 14 15 16 17 18 19 20 21 22 23 24 25 26 27 28 29 30 31 32 33 34 35 36 37 38 39 40 41 42 43 44 45 46 47 48 49 50
000
AXUS43 KLBF 220310
MISLBF


WESTERN AND NORTH CENTRAL NEBRASKA HOURLY WEATHER ROUNDUP
NATIONAL WEATHER SERVICE NORTH PLATTE NE
1000 PM CDT MON JUL 21 2014

***STATIONS NOT REPORTING VARIABLES SUCH AS SKY/WEATHER OR
PRESSURE ARE PROVIDED BY THE NEBRASKA DEPARTMENT OF
ROADS...RAWS...AND APRS NETWORKS...AND ARE NOT UNDER
NATIONAL WEATHER SERVICE QUALITY CONTROL***

...OBSERVATIONS IN AND NEAR THE EASTERN PANHANDLE OF NEBRASKA...

CITY           SKY/WX    TMP DP  RH WIND       PRES   REMARKS
PINE RIDGE     CLEAR     82  53  36 S15       29.92R
CHADRON        PTCLDY    87  46  24 S15       29.92R
ALLIANCE       PTCLDY    75  51  43 S7        30.00R
SIDNEY         PTCLDY    79  47  32 E9        30.09R
WHITECLAY        N/A     85  50  29 S13         N/A
RUSHVILLE        N/A     79  45  29 SW14        N/A
GORDON           N/A     87  47  24 S15         N/A
CRESCENT LAKE    N/A     88  43  20 S7G30       N/A
LISCO            N/A     85  46  25 E17         N/A
BIG SPRINGS      N/A     84  58  41 N7          N/A
$$

...OBSERVATIONS IN NORTH CENTRAL NEBRASKA...

CITY           SKY/WX    TMP DP  RH WIND       PRES   REMARKS
VALENTINE      CLEAR     80  64  58 SW5       29.87R
THEDFORD       CLEAR     87  56  35 W8        29.95R
AINSWORTH      CLEAR     78  61  55 S8        29.89R
O`NEILL        PTCLDY    82  65  57 S5        29.85R
BROKEN BOW     PTCLDY    80  66  62 CALM      29.91R
BROWNLEE         N/A     96  51  21 S13         N/A  HX  93
SPRINGVIEW       N/A     76  64  65 CALM        N/A
DUNNING          N/A     87  59  39 S5          N/A
ROSE             N/A     88  74  63 CALM        N/A  HX  96
NEWPORT          N/A     82  71  69 S8          N/A
SARGENT          N/A     85  64  48 W3          N/A
COMSTOCK         N/A     89  76  65 S12         N/A  HX 100
CHAMBERS         N/A     81  73  76 CALM        N/A
$$

...OBSERVATIONS IN SOUTHWEST NEBRASKA AND FAR NORTHEAST COLORADO...

CITY           SKY/WX    TMP DP  RH WIND       PRES   REMARKS
WRAY             N/A     84  55  36 S13       30.01R
HOLYOKE        FAIR      77  63  61 SE3       30.01R
IMPERIAL       PTCLDY    82  57  42 S12       29.99R
OGALLALA       CLOUDY    79  56  45 NE15      30.02F
NORTH PLATTE   PTCLDY    81  58  45 S8        29.95R
MCCOOK         MOCLDY    80  61  52 SW6       29.95R
LEXINGTON      MOCLDY    80  70  70 S3        29.93R
PAXTON           N/A     84  65  53 S6          N/A
SUTHERLAND       N/A     87  64  45 SW8         N/A
BRADY            N/A     82  59  45 CALM        N/A
GOTHENBURG       N/A     92  57  30 S3          N/A  HX  90
CALLAWAY         N/A     81  74  78 S8          N/A
$$

...NORTH PLATTE AREA...

CITY           SKY/WX    TMP DP  RH WIND       PRES   REMARKS
AIRPORT        PTCLDY    81  58  45 S8        29.95R
$$

...SOME WEATHER OBSERVATIONS FROM AROUND THE REGION...

CITY           SKY/WX    TMP DP  RH WIND       PRES   REMARKS
DENVER         PTCLDY    85  40  20 VRB5      30.14R
LARAMIE        CLEAR     66  36  32 SW9       30.29R
CHEYENNE       PTCLDY    72  45  37 W9        30.20R
SCOTTSBLUFF    PTCLDY    72  61  68 E6        30.01R
RAPID CITY     PTCLDY    76  56  49 N13       29.95R
PIERRE         CLEAR     83  70  64 N14       29.81R
WINNER         FAIR      92  58  31 NW3       29.83R HX  91
SIOUX FALLS    PTCLDY    84  77  79 S13       29.78R HX  94
OMAHA          CLOUDY    89  76  65 S13       29.85R HX 100
GRAND ISLAND   CLOUDY    90  69  50 S12       29.89R HX  94
KANSAS CITY    MOCLDY    83  73  72 S12       29.97R
WICHITA        MOCLDY    83  74  74 SE10      30.00R
HAYS           CLOUDY    84  66  54 S10       29.98R
LIBERAL        CLOUDY    79  61  53 W15       30.11R
GOODLAND       PTCLDY    74  61  63 SE12      30.07R
$$



USA.gov is the U.S. government's official web portal to all federal, state and local government web resources and services.